• In Lithuania
  • List of Countries
  • For 7 days
  • Water Temperature
  • Satellite Maps
  • Weather Map
  • Weather Widgets
  • user-avatar
    Login

    Hourly Weather Karszowek

    Today, 26 September, Wednesday

    Time Temperature Precipitation Wind Pressure Humidity
    00:00 +6°C° 0 mm 2 mps 763 mmHg 73%
    01:00 +5°C° 0 mm 2 mps 763 mmHg 74%
    02:00 +5°C° 0 mm 2 mps 763 mmHg 74%
    03:00 +5°C° 0 mm 2 mps 763 mmHg 74%
    04:00 +5°C° 0 mm 2 mps 763 mmHg 74%
    05:00 +5°C° 0 mm 2 mps 763 mmHg 73%
    06:00 +6°C° 0 mm 2 mps 763 mmHg 72%
    07:00 +6°C° 0 mm 2 mps 763 mmHg 71%
    08:00 +8°C° 0 mm 3 mps 763 mmHg 63%
    09:00 +10°C° 0 mm 3 mps 762 mmHg 55%
    10:00 +12°C° 0 mm 4 mps 762 mmHg 48%
    11:00 +13°C° 0 mm 4 mps 762 mmHg 46%
    12:00 +14°C° 0 mm 4 mps 761 mmHg 44%
    13:00 +14°C° 0 mm 4 mps 761 mmHg 42%
    14:00 +15°C° 0 mm 4 mps 760 mmHg 43%
    15:00 +15°C° 0 mm 4 mps 759 mmHg 44%
    16:00 +15°C° 0 mm 4 mps 759 mmHg 45%
    17:00 +14°C° 0 mm 4 mps 758 mmHg 48%
    18:00 +12°C° 0 mm 4 mps 758 mmHg 51%
    19:00 +11°C° 0 mm 4 mps 758 mmHg 53%
    20:00 +11°C° 0 mm 4 mps 758 mmHg 53%
    21:00 +11°C° 0 mm 4 mps 758 mmHg 53%
    22:00 +10°C° 0 mm 4 mps 758 mmHg 53%
    23:00 +10°C° 0 mm 4 mps 758 mmHg 53%

    Tomorrow, 27 September, Thursday

    Time Temperature Precipitation Wind Pressure Humidity
    00:00 +11°C° 0 mm 4 mps 758 mmHg 53%
    01:00 +11°C° 0 mm 4 mps 758 mmHg 53%
    02:00 +11°C° 0 mm 4 mps 757 mmHg 54%
    03:00 +11°C° 0 mm 4 mps 757 mmHg 54%
    04:00 +11°C° 0 mm 3 mps 757 mmHg 54%
    05:00 +11°C° 0 mm 3 mps 757 mmHg 55%
    06:00 +11°C° 0 mm 3 mps 757 mmHg 57%
    07:00 +12°C° 0 mm 3 mps 757 mmHg 58%
    08:00 +14°C° 0 mm 3 mps 757 mmHg 57%
    09:00 +15°C° 0 mm 4 mps 757 mmHg 56%
    10:00 +18°C° 0 mm 4 mps 757 mmHg 55%
    11:00 +19°C° 0 mm 4 mps 757 mmHg 55%
    12:00 +20°C° 0 mm 4 mps 756 mmHg 55%
    13:00 +22°C° 0 mm 3 mps 756 mmHg 55%
    14:00 +22°C° 0 mm 3 mps 755 mmHg 56%
    15:00 +22°C° 0 mm 3 mps 755 mmHg 56%
    16:00 +22°C° 0 mm 3 mps 754 mmHg 57%
    17:00 +20°C° 0 mm 3 mps 754 mmHg 61%
    18:00 +18°C° 0 mm 3 mps 753 mmHg 65%
    19:00 +16°C° 0 mm 3 mps 753 mmHg 69%
    20:00 +16°C° 0 mm 3 mps 753 mmHg 68%
    21:00 +16°C° 0 mm 3 mps 753 mmHg 67%
    22:00 +14°C° 0 mm 3 mps 752 mmHg 67%
    23:00 +14°C° 0 mm 3 mps 752 mmHg 66%

    Day after tomorrow, 28 September, Friday

    Time Temperature Precipitation Wind Pressure Humidity
    00:00 +14°C° 0 mm 3 mps 751 mmHg 65%
    01:00 +14°C° 0 mm 4 mps 751 mmHg 64%
    02:00 +13°C° 0 mm 3 mps 750 mmHg 64%
    03:00 +13°C° 0 mm 3 mps 750 mmHg 63%
    04:00 +12°C° 0 mm 3 mps 750 mmHg 63%
    05:00 +12°C° 0 mm 3 mps 750 mmHg 64%
    06:00 +12°C° 0 mm 3 mps 750 mmHg 65%
    07:00 +12°C° 0 mm 3 mps 750 mmHg 66%
    08:00 +13°C° 0 mm 3 mps 750 mmHg 63%
    09:00 +16°C° 0 mm 3 mps 750 mmHg 59%
    10:00 +18°C° 0 mm 4 mps 750 mmHg 56%
    11:00 +18°C° 0 mm 4 mps 750 mmHg 58%
    12:00 +18°C° 0 mm 4 mps 750 mmHg 59%
    13:00 +18°C° 0 mm 4 mps 750 mmHg 61%
    14:00 +17°C° 0 mm 4 mps 750 mmHg 64%
    15:00 +15°C° 0 mm 4 mps 749 mmHg 67%
    16:00 +15°C° 0 mm 4 mps 749 mmHg 71%
    17:00 +14°C° 0 mm 4 mps 750 mmHg 72%
    18:00 +13°C° 0 mm 3 mps 750 mmHg 74%
    19:00 +13°C° 0 mm 2 mps 750 mmHg 75%
    20:00 +12°C° 0 mm 2 mps 751 mmHg 74%
    21:00 +12°C° 0 mm 2 mps 751 mmHg 73%
    22:00 +10°C° 0 mm 2 mps 751 mmHg 72%
    23:00 +10°C° 0 mm 2 mps 751 mmHg 72%

    29 September, Saturday

    Time Temperature Precipitation Wind Pressure Humidity
    00:00 +10°C° 0 mm 2 mps 751 mmHg 72%
    01:00 +10°C° 0 mm 2 mps 751 mmHg 72%
    02:00 +9°C° 0 mm 2 mps 752 mmHg 72%
    03:00 +9°C° 0 mm 2 mps 752 mmHg 72%
    04:00 +9°C° 0 mm 3 mps 752 mmHg 71%
    05:00 +9°C° 0 mm 3 mps 752 mmHg 72%
    06:00 +8°C° 0 mm 3 mps 753 mmHg 72%
    07:00 +8°C° 0 mm 3 mps 753 mmHg 73%
    08:00 +8°C° 0 mm 4 mps 753 mmHg 68%
    09:00 +10°C° 0 mm 4 mps 753 mmHg 62%
    10:00 +11°C° 0 mm 4 mps 754 mmHg 57%
    11:00 +12°C° 0 mm 4 mps 754 mmHg 54%
    12:00 +13°C° 0 mm 4 mps 754 mmHg 51%
    13:00 +13°C° 0 mm 4 mps 754 mmHg 48%
    14:00 +13°C° 0 mm 4 mps 754 mmHg 48%
    15:00 +13°C° 0 mm 3 mps 754 mmHg 49%
    16:00 +13°C° 0 mm 3 mps 754 mmHg 50%
    17:00 +11°C° 0 mm 3 mps 754 mmHg 55%
    18:00 +10°C° 0 mm 2 mps 755 mmHg 60%
    19:00 +9°C° 0 mm 1 mps 755 mmHg 65%
    20:00 +9°C° 0 mm 1 mps 755 mmHg 66%
    21:00 +9°C° 0 mm 1 mps 756 mmHg 68%
    22:00 +8°C° 0 mm 1 mps 756 mmHg 69%
    23:00 +8°C° 0 mm 1 mps 756 mmHg 70%

    30 September, Sunday

    Time Temperature Precipitation Wind Pressure Humidity
    00:00 +8°C° 0 mm 1 mps 756 mmHg 71%
    01:00 +6°C° 0 mm 0 mps 756 mmHg 72%
    02:00 +6°C° 0 mm 0 mps 755 mmHg 73%
    03:00 +6°C° 0 mm 0 mps 755 mmHg 75%
    04:00 +5°C° 0 mm 0 mps 755 mmHg 76%
    05:00 +6°C° 0 mm 0 mps 755 mmHg 74%
    06:00 +6°C° 0 mm 0 mps 755 mmHg 73%
    07:00 +7°C° 0 mm 0 mps 755 mmHg 71%
    08:00 +10°C° 0 mm 1 mps 755 mmHg 63%
    09:00 +11°C° 0 mm 1 mps 755 mmHg 55%
    10:00 +13°C° 0 mm 2 mps 755 mmHg 47%
    11:00 +14°C° 0 mm 2 mps 754 mmHg 44%
    12:00 +15°C° 0 mm 2 mps 754 mmHg 40%
    13:00 +16°C° 0 mm 2 mps 753 mmHg 37%
    14:00 +16°C° 0 mm 2 mps 753 mmHg 38%
    15:00 +15°C° 0 mm 2 mps 752 mmHg 39%
    16:00 +15°C° 0 mm 2 mps 752 mmHg 40%
    17:00 +14°C° 0 mm 2 mps 752 mmHg 44%
    18:00 +12°C° 0 mm 2 mps 751 mmHg 48%
    19:00 +9°C° 0 mm 2 mps 751 mmHg 52%
    20:00 +9°C° 0 mm 2 mps 751 mmHg 53%
    21:00 +8°C° 0 mm 2 mps 751 mmHg 55%
    22:00 +9°C° 0 mm 1 mps 750 mmHg 57%
    23:00 +8°C° 0 mm 1 mps 750 mmHg 59%

    1 October, Monday

    Time Temperature Precipitation Wind Pressure Humidity
    00:00 +8°C° 0 mm 1 mps 749 mmHg 62%
    01:00 +8°C° 0 mm 1 mps 749 mmHg 64%
    02:00 +8°C° 0 mm 1 mps 748 mmHg 66%
    03:00 +7°C° 0 mm 1 mps 748 mmHg 68%
    04:00 +7°C° 0 mm 1 mps 747 mmHg 70%
    05:00 +8°C° 0 mm 1 mps 747 mmHg 69%
    06:00 +8°C° 0 mm 1 mps 747 mmHg 69%
    07:00 +9°C° 0 mm 1 mps 746 mmHg 69%
    08:00 +10°C° 0 mm 2 mps 746 mmHg 63%
    09:00 +13°C° 0 mm 2 mps 746 mmHg 57%
    10:00 +16°C° 0 mm 3 mps 745 mmHg 51%
    11:00 +17°C° 0 mm 3 mps 745 mmHg 50%
    12:00 +18°C° 0 mm 4 mps 744 mmHg 48%
    13:00 +19°C° 0 mm 4 mps 743 mmHg 47%
    14:00 +19°C° 0 mm 4 mps 743 mmHg 49%
    15:00 +19°C° 0 mm 3 mps 742 mmHg 50%
    16:00 +19°C° 0 mm 2 mps 742 mmHg 52%
    17:00 +17°C° 0 mm 2 mps 742 mmHg 58%
    18:00 +15°C° 0 mm 2 mps 742 mmHg 63%
    19:00 +13°C° 0 mm 2 mps 742 mmHg 69%
    20:00 +13°C° 0 mm 2 mps 742 mmHg 71%
    21:00 +12°C° 0 mm 2 mps 741 mmHg 73%
    22:00 +10°C° 0 mm 2 mps 741 mmHg 76%
    23:00 +10°C° 0 mm 2 mps 741 mmHg 75%
    Show more